This is the latest recevied weather packets stored in our database for station/object WI0K. If no packets are shown the sender has not sent any weather packets the latest 10 day(s).
| Time | Temp. | Humidity | Pressure | Rain* | Wind** | Luminosity | Snow |
|---|---|---|---|---|---|---|---|
| 1777420055 | 13.33° C | 35% | 1016.8 hPa | 0 mm | - | 125 W/m² | - |
| 1777419754 | 12.78° C | 36% | 1016.8 hPa | 0 mm | - | 106 W/m² | - |
| 1777419453 | 12.78° C | 36% | 1016.6 hPa | 0 mm | - | 106 W/m² | - |
| 1777419153 | 12.78° C | 36% | 830 hPa | 0 mm | - | 141 W/m² | - |
| 1777418852 | 12.78° C | 36% | 1016.6 hPa | 0 mm | - | 132 W/m² | - |
| 1777418551 | 12.78° C | 36% | 829.9 hPa | 0 mm | - | 111 W/m² | - |
| 1777418251 | 12.78° C | 36% | 829.9 hPa | 0 mm | - | 155 W/m² | - |
| 1777417950 | 12.78° C | 37% | 1016.5 hPa | 0 mm | - | 125 W/m² | - |
| 1777417649 | 12.78° C | 37% | 829.8 hPa | 0 mm | - | 116 W/m² | - |
| 1777417349 | 12.78° C | 37% | 829.8 hPa | 0 mm | - | 170 W/m² | - |
| 1777417048 | 12.78° C | 38% | 829.7 hPa | 0 mm | - | 121 W/m² | - |
| 1777416747 | 12.78° C | 38% | 829.6 hPa | 0 mm | - | 142 W/m² | - |
| 1777416447 | 12.78° C | 38% | 829.6 hPa | 0 mm | - | 161 W/m² | - |
| 1777416146 | 12.78° C | 38% | 829.6 hPa | 0 mm | - | 139 W/m² | - |
| 1777415845 | 12.78° C | 39% | 1016.2 hPa | 0 mm | - | 197 W/m² | - |
| 1777415544 | 13.33° C | 38% | 1016.2 hPa | 0 mm | - | 207 W/m² | - |
| 1777415244 | 12.78° C | 41% | 1016.3 hPa | 0 mm | - | 203 W/m² | - |
| 1777414943 | 13.33° C | 38% | 829.5 hPa | 0 mm | - | 244 W/m² | - |
| 1777414642 | 12.78° C | 41% | 829.6 hPa | 0 mm | - | 244 W/m² | - |
| 1777414342 | 12.78° C | 39% | 1016.3 hPa | 0 mm | - | 476 W/m² | - |
| 1777414041 | 13.33° C | 39% | 1016.3 hPa | 0 mm | - | 708 W/m² | - |
| 1777413740 | 12.78° C | 39% | 829.6 hPa | 0 mm | - | 305 W/m² | - |
| 1777413439 | 13.33° C | 38% | 829.6 hPa | 0 mm | - | 879 W/m² | - |
| 1777413139 | 12.78° C | 40% | 829.7 hPa | 0 mm | - | 347 W/m² | - |
| 1777412838 | 13.33° C | 40% | 1016.5 hPa | 0 mm | - | 433 W/m² | - |
* Rain latest hour (hover to see other rain measurements)
** Current wind speed in m/s (hover to see current wind gust speed)